Regional Weather Roundup
Issued by NWS

Home | Current Version | Previous Version | Graphics & Text | Print | Product List | Glossary On
Versions: 1 2 3 4 5 6 7 8 9 10 11 12 13 14 15 16 17 18 19 20 21 22 23 24 25 26 27 28 29 30 31 32 33 34 35 36 37 38 39 40 41 42 43 44 45 46 47 48 49 50
000
ASUS45 KTFX 140004
RWRMT
MONTANA HOURLY WEATHER ROUNDUP
NATIONAL WEATHER SERVICE GREAT FALLS MT
604 PM MDT SUN JUL 13 2014

NOTE: "FAIR" INDICATES FEW OR NO CLOUDS BELOW 12000 FEET WITH NO
SIGNIFICANT WEATHER AND/OR OBSTRUCTIONS TO VISIBILITY.

* THESE STATIONS ARE NOT UNDER NWS QUALITY CONTROL. THEY DO NOT
   REPORT WEATHER SUCH AS PRECIPITATION OR FOG.

MTZ001>007-043-140100-
WEST OF THE DIVIDE
CITY           SKY/WX    TMP DP  RH WIND       PRES   REMARKS
KALISPELL      CLEAR     91  43  19 SE3       30.12F
MISSOULA       CLEAR     95  41  15 N14G23    30.10F
MULLAN PASS    PTCLDY    79  43  28 VRB3      30.33F
* ESSEX        N/A       88  45  22 NE11G18    N/A
* LINCOLN      N/A       92  38  15 E4G10      N/A
* LOOKOUT PASS N/A       86  43  22 S4         N/A
* POLSON       N/A       89  47  23 NW3        N/A
* RONAN APT    CLEAR     91  52  26 N6         N/A
* SEELEY LAKE  N/A       93  43  18 W6G12      N/A
* THOMP F APT  PTCLDY    84  44  25 SW6G14     N/A
* YAAK HILL    N/A      101  47  16 S1         N/A
$$

MTZ008-052>055-140100-
SOUTHWEST MONTANA
CITY           SKY/WX    TMP DP  RH WIND       PRES   REMARKS
W YELLOWSTONE  PTCLDY    79  45  30 S6        30.35S
* THREE FORKS  MOCLDY    86  55  35 N/A        N/A
* BOULDER HILL N/A       84  44  25 N/A        N/A
* MONIDA PASS  N/A       79  44  29 W7G14      N/A
* RAYNOLDS PAS N/A       84  76  77 N/A        N/A   HI  93
* WHITEHALL    N/A       88  46  23 NE7G19     N/A
* WISE RIVER   N/A       81  46  29 E14G21     N/A
$$

MTZ009>010-012-014-046-048-049-054-140100-
EAST SLOPES AND CENTRAL MONTANA
CITY           SKY/WX    TMP DP  RH WIND       PRES   REMARKS
MALMSTROM AFB  CLEAR     86  45  24 E12G21    30.20S
* CONRAD       CLEAR     88  55  33 N/A        N/A
* DEARBORN     N/A       88  42  20 VRB14G19    N/A
* MONARCH      N/A       82  34  18 N11G17     N/A
* SAINT MARY   N/A       86  45  24 N7G12      N/A
* SWEET GRASS  N/A       81  49  33 NE14       N/A
$$

MTZ011-013-016-021-035-040-045-047-050-051-140100-
NORTH CENTRAL MONTANA
CITY           SKY/WX    TMP DP  RH WIND       PRES   REMARKS
* CHESTER      N/A       86  40  20 NE9G16     N/A
* DENTON       N/A       87  44  22 N9G16      N/A
* GEYSER       N/A       86  42  21 NE11G19    N/A
* JUDITH GAP   N/A       83  46  27 N19G24     N/A
* LOMA         N/A       87  47  25 NE11G17    N/A
$$

MTZ017>020-022>027-061-062-140100-
NORTHEAST MONTANA
CITY           SKY/WX    TMP DP  RH WIND       PRES   REMARKS
GLENDIVE       CLEAR     79  43  28 NW22      30.14S
JORDAN         CLEAR     84  48  29 N16G28    30.15F
SIDNEY         CLEAR     77  37  24 NW16G23   30.13F
* BEAVER HILL  N/A       75  40  28 N23G28     N/A
* CIRCLE       N/A       80  53  39 NE8G13     N/A
* LINDSAY DVD  N/A       75  47  37 NW14G19    N/A
* NAVAJO       N/A       70  34  27 N20G27     N/A
$$

MTZ028>042-056>058-140100-
SOUTHCENTRAL AND SOUTHEAST MONTANA
CITY           SKY/WX    TMP DP  RH WIND       PRES   REMARKS
BILLINGS       FAIR      88  45  22 NE16      30.17S
* LAUREL APT   CLEAR     90  50  25 NE9        N/A
* ROUNDUP APT  CLEAR     88  43  21 N14G21     N/A
* ALZADA       N/A       81  50  34 NW8G14     N/A
* HYSHAM       N/A       87  44  22 NE6G13     N/A
* LAME DEER    N/A       79  45  30 VRB13G18    N/A
* REED POINT   N/A       88  44  22 NE2G11     N/A
* ROSCOE HILL  N/A       83  34  17 NW4        N/A
$$

REGIONAL REPORTS...DAKOTAS
CITY           SKY/WX    TMP DP  RH WIND       PRES   REMARKS
WILLISTON      CLEAR     75  36  24 NW20G29   30.11S
DICKINSON      CLEAR     73  37  27 NW20G30   30.09F
CROSBY         PTCLDY    66  46  49 NW23G29   30.12R
WATFORD CITY   CLEAR     72  39  30 NW15G25   30.08F
BISMARCK       CLEAR     73  41  32 NW22G28   30.04F
GRAND FORKS    CLOUDY    64  46  52 NW12G20   29.92S
FARGO          MOCLDY    72  46  40 NW22      29.91S
BUFFALO SD     CLEAR     77  46  33 N23G31    30.06S
RAPID CITY     CLOUDY    82  54  38 NE14      30.11S
$$

REGIONAL REPORTS...WYOMING/IDAHO/WASHINGTON
CITY           SKY/WX    TMP DP  RH WIND       PRES   REMARKS
GILLETTE       CLEAR     84  43  24 N15       30.18F
CODY           PTCLDY    82  46  28 NE14      30.24F
YELLOWSTONE LA MOCLDY    72  41  33 CALM      30.48S
MULLAN PASS    PTCLDY    79  43  28 VRB3      30.33S
SAND POINT     CLEAR     91  50  25 CALM      30.05F
SPOKANE        CLOUDY    95  39  14 NE5       30.06F

$$




USA.gov is the U.S. government's official web portal to all federal, state and local government web resources and services.